Home   Weather   Gerasdorf bei Wien   Past weeks

Flag for Austria Past Weather in Gerasdorf bei Wien, Lower Austria, Austria — Yesterday and Last 2 Weeks

48 °F


Feels Like: 47 °F
Forecast: 41 / 54 °F
Wind: 3 mph from Northeast

Location: Wien / Hohe Warte

Current Time: Oct 27, 2016 at 1:10:44 AM

Latest Report: Oct 27, 2016 at 12:00 AM

Visibility: N/A

Pressure: 30.40 "Hg

Humidity: 71%

Dew Point: 39 °F

Location of Gerasdorf bei WienLocation

Past Weather in Gerasdorf bei Wien — Graph


Gerasdorf bei Wien Temperature Yesterday

Maximum temperature yesterday: 58 °F (at 12:00 AM)
Minimum temperature yesterday: 49 °F (at 11:00 PM)
Average temperature yesterday: 54 °F

High & Low Weather Summary for the Past Weeks

High65 °F (Oct 16, 2:00 PM)99% (Oct 21, 8:00 AM)30.40 "Hg (Oct 21, 8:00 AM)
Low38 °F (Oct 23, 4:00 AM)57% (Oct 22, 3:00 PM)29.91 "Hg (Oct 12, 5:00 AM)
Average50 °F87%30.10 "Hg
* Reported Oct 12 12:00 AM — Oct 27 12:00 AM, Gerasdorf bei Wien, Weather by CustomWeather, © 2016

Note: Actual official high and low records may vary slightly from our data, if they occured in-between our weather recording intervals... More about our weather records


Gerasdorf bei Wien Weather History for the Previous 24 Hours

Scroll right to see more
Time TempWeatherWind HumidityBarometerVisibility
12:00 AM
Thu, Oct 27
48 °FCool.3 mph71%30.40 "HgN/A
11:00 PM
Wed, Oct 26
49 °FCool.3 mph73%30.40 "HgN/A
10:00 PM49 °FOvercast.5 mph75%30.39 "Hg6 mi
9:00 PM49 °FOvercast.2 mph78%30.38 "Hg6 mi
8:00 PM51 °FOvercast.3 mph81%30.36 "Hg6 mi
7:00 PM53 °FOvercast.3 mph81%30.35 "Hg14 mi
6:00 PM54 °FOvercast.2 mph82%30.33 "Hg16 mi
5:00 PM55 °FOvercast.1 mph79%30.32 "Hg16 mi
4:00 PM56 °FCool.2 mph77%30.32 "HgN/A
3:00 PM57 °FPartly sunny.1 mph76%30.30 "Hg12 mi
2:00 PM57 °FCool.3 mph72%30.31 "HgN/A
1:00 PM56 °FCool.1 mph76%30.32 "HgN/A
12:00 PM55 °FOvercast.2 mph79%30.32 "Hg11 mi
11:00 AM54 °FOvercast.2 mph79%30.32 "Hg14 mi
10:00 AM53 °FOvercast.2 mph84%30.33 "Hg14 mi
9:00 AM53 °FLow clouds.2 mph81%30.32 "Hg17 mi
8:00 AM53 °FLow clouds.3 mph86%30.29 "Hg12 mi
7:00 AM53 °FLow clouds.5 mph86%30.27 "Hg6 mi
6:00 AM53 °FLow clouds.3 mph87%30.26 "Hg6 mi
5:00 AM54 °FCool.5 mph85%30.25 "HgN/A
4:00 AM55 °FCool.5 mph86%30.23 "HgN/A
3:00 AM55 °FCool.3 mph88%30.22 "HgN/A
2:00 AM56 °FLow clouds.3 mph89%30.20 "Hg6 mi
1:00 AM57 °FCool.5 mph89%30.19 "HgN/A
Weather by CustomWeather, © 2016

See weather overviewHow to use our weather pages